shoulder
new_line
new_line
first
second
third
Al di la della Luna; Beyond the Moon; Astrophotography; Astrofotografia; Danilo Pivato
 
 
         
         
2007

Orbital Elements

Epoch 2007 May 20.0 TT = JDT 2454240.5
T 2007 May 4.4995 TT                                                                 MPC
q   2.053169                (2000.0)                         P                    Q
n   0.1432508      Peri.     24.2585            +0.9756506      +0.1267918
a   3.617468       Node   326.8675             -0.2124462      +0.7491399
e   0.432429       Incl.      19.1132             +0.0545208      +0.6501640
P   6.88
Returns in the future: 2021
 
         
         
2007.10.24
2007.10.27
2007.10.28
2007.11.01
2007.11.02
         
2007.11.02 - Blue filter
Video 17P/Holmes 2007.11.02 [92,06Mb]
2007.11.03 - Blue filter
2007.11.05 - Blue filter
2007.11.07 - Blue filter
         
2007.11.09 - Blue filter
2007.11.14 - sduf LRGB
2007.11.14 - LRGB
2007.11.14 - sduf LRGB
2007.11.17 - LRGB
         
2007.11.18 - sduf LRGB
2007.11.19 - LRGB
2007.11.26 - LRGB
2007.11.28 - sduf LRGB
2007.11.30 - sduf LRGB
         
2007.12.04 - sduf LRGB
2007.12.05 - sduf LRGB
2007.12.12 - sduf LRGB
2007.12.14 - sduf LRGB
2007.12.26 - sduf LRGB
         
         
         
         
         
         
         
         
         
         
       
         
         
         
      

 

       
 
Since: 01/01/2004
 
       
 
Since: 01/11/2010